| time (UTC) | temp F | wind direction | speed knots | gust knots | rain 1hr in | rain 24hr in | rain mn in | humidity % | barometer mb |
| 20260505153101 | 49 | 300 | 1.7 | 5.2 | 0.01 | 0.03 | 0.03 | 85 | 1009.0 |
| 20260505151549 | 48 | 281 | 0.0 | 2.6 | 0.01 | 0.03 | 0.03 | 84 | 1008.9 |
| 20260505124544 | 45 | 30 | 2.6 | 7.8 | 0.02 | 0.02 | 0.02 | 81 | 1008.5 |
| 20260505123052 | 45 | 290 | 2.6 | 7.8 | 0.02 | 0.02 | 0.02 | 79 | 1009.3 |
| 20260505121539 | 46 | 300 | 2.6 | 9.6 | 0.01 | 0.01 | 0.01 | 78 | 1009.6 |
| 20260505120043 | 47 | 279 | 0.9 | 13.9 | 0.00 | 0.00 | 0.00 | 75 | 1009.1 |
| 20260505114533 | 49 | 300 | 4.3 | 20.0 | 0.00 | 0.00 | 0.00 | 71 | 1008.9 |
| 20260505113030 | 50 | 286 | 7.8 | 14.8 | 0.00 | 0.00 | 0.00 | 69 | 1008.8 |
| 20260505111532 | 50 | 302 | 3.5 | 12.2 | 0.00 | 0.00 | 0.00 | 75 | 1008.5 |
| 20260505101529 | 49 | 292 | 2.6 | 7.8 | 0.00 | 0.00 | 0.00 | 77 | 1008.5 |
| 20260505100029 | 49 | 319 | 1.7 | 4.3 | 0.00 | 0.00 | 0.00 | 77 | 1008.3 |
| 20260505094521 | 48 | 296 | 0.0 | 2.6 | 0.00 | 0.00 | 0.00 | 77 | 1008.9 |
| 20260505093020 | 48 | 269 | 0.0 | 7.0 | 0.00 | 0.00 | 0.00 | 76 | 1008.4 |
| 20260505091520 | 48 | 336 | 0.9 | 2.6 | 0.00 | 0.00 | 0.00 | 76 | 1008.6 |
| 20260505090016 | 49 | 309 | 0.0 | 0.0 | 0.00 | 0.00 | 0.00 | 75 | 1008.5 |
| 20260505084515 | 49 | 309 | 0.0 | 2.6 | 0.00 | 0.00 | 0.00 | 74 | 1008.5 |
| 20260505083018 | 49 | 323 | 0.0 | 2.6 | 0.00 | 0.00 | 0.00 | 74 | 1008.6 |
| 20260505081512 | 49 | 321 | 0.0 | 2.6 | 0.00 | 0.00 | 0.00 | 73 | 1008.9 |
| 20260505080017 | 50 | 313 | 0.9 | 3.5 | 0.00 | 0.00 | 0.00 | 72 | 1009.1 |
| 20260505074508 | 50 | 13 | 0.0 | 0.0 | 0.00 | 0.00 | 0.00 | 70 | 1009.3 |
| 20260505073059 | 50 | 13 | 0.0 | 1.7 | 0.00 | 0.00 | 0.00 | 70 | 1009.2 |
| 20260505071505 | 51 | 19 | 0.0 | 1.7 | 0.00 | 0.00 | 0.00 | 69 | 1009.1 |
| 20260505070004 | 51 | 321 | 0.0 | 2.6 | 0.00 | 0.00 | 0.00 | 68 | 1008.9 |
| 20260505064502 | 51 | 278 | 0.0 | 2.6 | 0.00 | 0.00 | 0.00 | 67 | 1009.2 |
| 20260505063101 | 51 | 278 | 0.0 | 3.5 | 0.00 | 0.00 | 0.00 | 67 | 1009.3 |
| 20260505061559 | 52 | 309 | 0.0 | 4.3 | 0.00 | 0.00 | 0.00 | 67 | 1008.8 |
| 20260505060100 | 52 | 329 | 0.9 | 3.5 | 0.00 | 0.00 | 0.00 | 66 | 1008.4 |
| 20260505054553 | 52 | 319 | 0.9 | 3.5 | 0.00 | 0.00 | 0.00 | 66 | 1008.9 |
| 20260505053052 | 52 | 360 | 0.9 | 3.5 | 0.00 | 0.00 | 0.00 | 65 | 1009.6 |
| 20260505051551 | 53 | 11 | 0.9 | 7.0 | 0.00 | 0.00 | 0.00 | 65 | 1009.8 |
| 20260505041554 | 54 | 325 | 5.2 | 11.3 | 0.00 | 0.00 | 0.00 | 61 | 1009.5 |
| 20260505040049 | 55 | 333 | 5.2 | 10.4 | 0.00 | 0.00 | 0.00 | 59 | 1009.7 |
| 20260505034548 | 55 | 319 | 4.3 | 13.9 | 0.00 | 0.00 | 0.00 | 57 | 1009.8 |
| 20260505033048 | 56 | 324 | 6.1 | 13.0 | 0.00 | 0.00 | 0.00 | 56 | 1009.7 |
| 20260505031547 | 56 | 304 | 5.2 | 12.2 | 0.00 | 0.00 | 0.00 | 54 | 1009.6 |
| 20260505030105 | 57 | 319 | 7.0 | 17.4 | 0.00 | 0.00 | 0.00 | 49 | 1009.1 |
| 20260505024549 | 58 | 74 | 7.8 | 13.0 | 0.00 | 0.00 | 0.00 | 47 | 1008.8 |
| 20260505023044 | 60 | 291 | 9.6 | 17.4 | 0.00 | 0.00 | 0.00 | 41 | 1008.7 |
| 20260505021544 | 62 | 315 | 6.1 | 13.9 | 0.00 | 0.00 | 0.00 | 35 | 1008.7 |
| 20260505020044 | 63 | 277 | 5.2 | 13.0 | 0.00 | 0.00 | 0.00 | 33 | 1008.5 |
| 20260505014603 | 63 | 317 | 1.7 | 11.3 | 0.00 | 0.00 | 0.00 | 33 | 1008.4 |
| 20260505013050 | 64 | 289 | 7.0 | 14.8 | 0.00 | 0.00 | 0.00 | 31 | 1008.2 |
| 20260505011545 | 65 | 321 | 7.8 | 15.6 | 0.00 | 0.00 | 0.00 | 30 | 1008.1 |
| 20260505010053 | 66 | 217 | 1.7 | 11.3 | 0.00 | 0.00 | 0.00 | 28 | 1007.8 |
| 20260505004549 | 68 | 296 | 3.5 | 12.2 | 0.00 | 0.00 | 0.00 | 27 | 1007.8 |
| 20260505003054 | 68 | 305 | 1.7 | 13.0 | 0.00 | 0.00 | 0.00 | 25 | 1007.4 |
| 20260505001544 | 69 | 205 | 1.7 | 8.7 | 0.00 | 0.00 | 0.00 | 24 | 1007.3 |
| 20260505000041 | 69 | 153 | 0.9 | 9.6 | 0.00 | 0.00 | 0.00 | 24 | 1007.3 |
| 20260504234539 | 69 | 191 | 1.7 | 10.4 | 0.00 | 0.00 | 0.00 | 23 | 1007.8 |
| 20260504233039 | 70 | 178 | 3.5 | 9.6 | 0.00 | 0.00 | 0.00 | 23 | 1007.7 |
| 20260504231537 | 71 | 292 | 2.6 | 13.9 | 0.00 | 0.00 | 0.00 | 23 | 1007.9 |
| 20260504230037 | 71 | 283 | 1.7 | 9.6 | 0.00 | 0.00 | 0.00 | 23 | 1007.9 |
| 20260504224539 | 72 | 219 | 3.5 | 10.4 | 0.00 | 0.00 | 0.00 | 23 | 1008.1 |
| 20260504223056 | 73 | 186 | 1.7 | 7.0 | 0.00 | 0.00 | 0.00 | 23 | 1008.1 |
| 20260504221541 | 72 | 207 | 1.7 | 10.4 | 0.00 | 0.00 | 0.00 | 24 | 1008.2 |
| 20260504220037 | 72 | 280 | 1.7 | 8.7 | 0.00 | 0.00 | 0.00 | 22 | 1008.2 |
| 20260504214533 | 72 | 250 | 2.6 | 10.4 | 0.00 | 0.00 | 0.00 | 23 | 1008.4 |
| 20260504213031 | 74 | 286 | 2.6 | 11.3 | 0.00 | 0.00 | 0.00 | 25 | 1008.7 |
| 20260504211538 | 73 | 314 | 3.5 | 11.3 | 0.00 | 0.00 | 0.00 | 26 | 1008.8 |
| 20260504210026 | 73 | 278 | 3.5 | 13.9 | 0.00 | 0.00 | 0.00 | 24 | 1009.1 |
| 20260504204525 | 73 | 204 | 3.5 | 14.8 | 0.00 | 0.00 | 0.00 | 22 | 1009.4 |
| 20260504203024 | 73 | 287 | 1.7 | 8.7 | 0.00 | 0.00 | 0.00 | 23 | 1009.7 |
| 20260504201522 | 72 | 223 | 4.3 | 8.7 | 0.00 | 0.00 | 0.00 | 23 | 1009.6 |
| 20260504200023 | 73 | 189 | 3.5 | 13.9 | 0.00 | 0.00 | 0.00 | 23 | 1009.8 |
| 20260504194521 | 73 | 263 | 3.5 | 12.2 | 0.00 | 0.00 | 0.00 | 24 | 1009.9 |
| 20260504193021 | 72 | 186 | 1.7 | 8.7 | 0.00 | 0.00 | 0.00 | 24 | 1010.0 |
| 20260504191518 | 72 | 244 | 3.5 | 13.9 | 0.00 | 0.00 | 0.00 | 23 | 1010.0 |
| 20260504190016 | 73 | 255 | 4.3 | 7.8 | 0.00 | 0.00 | 0.00 | 22 | 1010.2 |
| 20260504184514 | 72 | 269 | 2.6 | 17.4 | 0.00 | 0.00 | 0.00 | 25 | 1010.8 |
| 20260504183013 | 71 | 202 | 5.2 | 12.2 | 0.00 | 0.00 | 0.00 | 22 | 1010.8 |
| 20260504181510 | 70 | 274 | 2.6 | 13.9 | 0.00 | 0.00 | 0.00 | 28 | 1010.7 |
| 20260504180009 | 71 | 297 | 4.3 | 8.7 | 0.00 | 0.00 | 0.00 | 27 | 1010.8 |
| 20260504174509 | 70 | 331 | 3.5 | 13.0 | 0.00 | 0.00 | 0.00 | 30 | 1011.1 |
| 20260504173007 | 69 | 204 | 2.6 | 7.8 | 0.00 | 0.00 | 0.00 | 32 | 1011.3 |
| 20260504171506 | 68 | 310 | 1.7 | 8.7 | 0.00 | 0.00 | 0.00 | 31 | 1011.7 |